Skip Navigation
Skip Navigation

Today's Weather Data

Time Wind Dir Wind Spd
mph
Wind Gust
mph
Hum In
%
Humidity
%
Temp In
F
Temp
F
Raw Barom
in
Tot Rain
in
UV Solar
W/sqm
DailyRain
in
HourRain
in
24HrRain
in
RainRate
in/hr
9/30/2016 12:07:01a 66 3 5 19 48 97.0 72.5 30.05 0.00 0.0 0 0.00 0.00 0.00 0.000
9/30/2016 12:08:03a 66 3 5 19 48 97.0 72.5 30.05 0.00 0.0 0 0.00 0.00 0.00 0.000
9/30/2016 12:09:26a 66 3 5 19 48 97.0 72.5 30.05 0.00 0.0 0 0.00 0.00 0.00 0.000
9/30/2016 12:11:06a 77 3 5 19 48 97.7 72.0 30.04 0.00 0.0 0 0.00 0.00 0.00 0.000
9/30/2016 12:14:38a 76 3 5 19 48 97.7 71.8 30.04 0.00 0.0 0 0.00 0.00 0.00 0.000
9/30/2016 12:15:42a 76 3 5 19 48 97.7 71.8 30.04 0.00 0.0 0 0.00 0.00 0.00 0.000
9/30/2016 12:16:47a 76 3 5 19 48 97.7 71.8 30.04 0.00 0.0 0 0.00 0.00 0.00 0.000
9/30/2016 12:17:52a 76 3 5 19 48 97.7 71.8 30.04 0.00 0.0 0 0.00 0.00 0.00 0.000
9/30/2016 12:19:03a 76 3 5 19 48 97.7 71.8 30.04 0.00 0.0 0 0.00 0.00 0.00 0.000
9/30/2016 12:20:28a 75 3 5 19 48 97.7 71.6 30.04 0.00 0.0 0 0.00 0.00 0.00 0.000
9/30/2016 12:21:36a 75 3 5 19 48 97.7 71.6 30.04 0.00 0.0 0 0.00 0.00 0.00 0.000
9/30/2016 12:22:39a 75 3 5 19 48 97.7 71.6 30.04 0.00 0.0 0 0.00 0.00 0.00 0.000
9/30/2016 12:23:40a 75 3 5 19 48 97.7 71.6 30.04 0.00 0.0 0 0.00 0.00 0.00 0.000
9/30/2016 12:42:48a 76 0 5 19 49 98.1 71.6 30.04 0.00 0.0 0 0.00 0.00 0.00 0.000
9/30/2016 12:45:00a 76 0 5 19 49 98.1 71.6 30.04 0.00 0.0 0 0.00 0.00 0.00 0.000
9/30/2016 12:46:41a 76 0 5 18 49 98.1 71.6 30.04 0.00 0.0 0 0.00 0.00 0.00 0.000
9/30/2016 12:49:46a 76 0 5 18 49 98.1 71.6 30.04 0.00 0.0 0 0.00 0.00 0.00 0.000
9/30/2016 1:06:52a 76 0 5 19 49 98.1 71.7 30.04 0.00 0.0 0 0.00 0.00 0.00 0.000
9/30/2016 1:10:49a 76 0 5 18 49 98.4 71.6 30.03 0.00 0.0 0 0.00 0.00 0.00 0.000
9/30/2016 1:11:51a 76 0 5 18 49 98.4 71.6 30.03 0.00 0.0 0 0.00 0.00 0.00 0.000
9/30/2016 1:12:57a 76 0 5 18 49 98.4 71.6 30.03 0.00 0.0 0 0.00 0.00 0.00 0.000
9/30/2016 1:15:14a 76 0 5 18 49 98.4 71.6 30.03 0.00 0.0 0 0.00 0.00 0.00 0.000
9/30/2016 1:16:27a 75 2 5 18 49 98.4 71.3 30.03 0.00 0.0 0 0.00 0.00 0.00 0.000
9/30/2016 1:17:38a 76 1 3 18 49 98.4 71.3 30.03 0.00 0.0 0 0.00 0.00 0.00 0.000
9/30/2016 1:18:46a 75 2 3 18 49 98.4 71.3 30.03 0.00 0.0 0 0.00 0.00 0.00 0.000
9/30/2016 1:19:51a 76 3 3 18 49 98.4 71.3 30.03 0.00 0.0 0 0.00 0.00 0.00 0.000
9/30/2016 1:20:51a 76 3 3 18 49 98.4 71.3 30.03 0.00 0.0 0 0.00 0.00 0.00 0.000
9/30/2016 1:21:58a 76 3 3 18 49 98.4 71.3 30.03 0.00 0.0 0 0.00 0.00 0.00 0.000
9/30/2016 1:23:11a 76 3 3 18 49 98.4 71.3 30.03 0.00 0.0 0 0.00 0.00 0.00 0.000
9/30/2016 1:26:04a 77 2 3 18 49 98.4 71.2 30.03 0.00 0.0 0 0.00 0.00 0.00 0.000
9/30/2016 1:27:14a 77 2 3 18 49 98.4 71.2 30.03 0.00 0.0 0 0.00 0.00 0.00 0.000
9/30/2016 1:28:27a 77 2 3 18 49 98.4 71.2 30.03 0.00 0.0 0 0.00 0.00 0.00 0.000
9/30/2016 1:29:30a 77 1 3 18 49 98.4 70.9 30.03 0.00 0.0 0 0.00 0.00 0.00 0.000
9/30/2016 1:30:36a 77 2 3 18 49 98.4 70.9 30.03 0.00 0.0 0 0.00 0.00 0.00 0.000
9/30/2016 1:31:44a 77 2 3 18 49 98.4 70.9 30.03 0.00 0.0 0 0.00 0.00 0.00 0.000
9/30/2016 1:32:44a 77 2 3 18 49 98.4 70.9 30.03 0.00 0.0 0 0.00 0.00 0.00 0.000
9/30/2016 1:33:43a 77 2 3 18 49 98.4 70.9 30.03 0.00 0.0 0 0.00 0.00 0.00 0.000
9/30/2016 1:35:00a 77 2 3 18 49 98.4 70.9 30.03 0.00 0.0 0 0.00 0.00 0.00 0.000
9/30/2016 1:37:31a 77 2 3 18 49 98.6 70.6 30.03 0.00 0.0 0 0.00 0.00 0.00 0.000
9/30/2016 1:38:33a 77 2 3 18 49 98.6 70.6 30.03 0.00 0.0 0 0.00 0.00 0.00 0.000
9/30/2016 1:40:32a 77 2 3 18 49 98.6 70.2 30.04 0.00 0.0 0 0.00 0.00 0.00 0.000
9/30/2016 1:41:34a 77 2 3 18 49 98.6 70.2 30.04 0.00 0.0 0 0.00 0.00 0.00 0.000
9/30/2016 1:42:39a 77 2 3 18 49 98.6 70.2 30.04 0.00 0.0 0 0.00 0.00 0.00 0.000
9/30/2016 1:44:48a 77 2 3 18 49 98.6 70.2 30.04 0.00 0.0 0 0.00 0.00 0.00 0.000
9/30/2016 1:45:50a 77 2 3 18 50 98.6 69.9 30.04 0.00 0.0 0 0.00 0.00 0.00 0.000
9/30/2016 1:46:59a 77 2 3 18 50 98.6 69.9 30.04 0.00 0.0 0 0.00 0.00 0.00 0.000
9/30/2016 1:48:07a 77 2 3 18 50 98.6 69.9 30.04 0.00 0.0 0 0.00 0.00 0.00 0.000
9/30/2016 1:49:11a 77 3 3 18 51 98.6 69.7 30.04 0.00 0.0 0 0.00 0.00 0.00 0.000
9/30/2016 1:50:18a 77 3 3 18 51 98.6 69.6 30.04 0.00 0.0 0 0.00 0.00 0.00 0.000
9/30/2016 1:51:27a 77 3 3 18 51 98.6 69.6 30.04 0.00 0.0 0 0.00 0.00 0.00 0.000
9/30/2016 1:52:28a 77 3 3 18 51 98.6 69.6 30.04 0.00 0.0 0 0.00 0.00 0.00 0.000
9/30/2016 2:00:34a 77 3 3 18 51 98.6 69.6 30.04 0.00 0.0 0 0.00 0.00 0.00 0.000
9/30/2016 2:01:37a 77 3 3 18 51 98.6 69.6 30.04 0.00 0.0 0 0.00 0.00 0.00 0.000
9/30/2016 2:02:38a 77 3 3 18 51 98.6 69.6 30.04 0.00 0.0 0 0.00 0.00 0.00 0.000
9/30/2016 2:04:55a 76 3 3 18 53 98.6 69.0 30.04 0.00 0.0 0 0.00 0.00 0.00 0.000
9/30/2016 2:06:24a 75 2 3 18 53 98.6 69.0 30.04 0.00 0.0 0 0.00 0.00 0.00 0.000
9/30/2016 2:07:28a 75 2 3 18 53 98.6 69.0 30.04 0.00 0.0 0 0.00 0.00 0.00 0.000
9/30/2016 2:08:29a 75 2 3 18 53 98.6 69.0 30.04 0.00 0.0 0 0.00 0.00 0.00 0.000
9/30/2016 2:09:35a 75 2 3 18 53 98.6 69.0 30.04 0.00 0.0 0 0.00 0.00 0.00 0.000
9/30/2016 2:10:45a 76 0 3 18 53 98.9 69.0 30.04 0.00 0.0 0 0.00 0.00 0.00 0.000
9/30/2016 2:11:50a 76 0 3 18 54 98.9 69.0 30.04 0.00 0.0 0 0.00 0.00 0.00 0.000
9/30/2016 2:12:50a 76 0 3 18 54 98.9 69.0 30.04 0.00 0.0 0 0.00 0.00 0.00 0.000
9/30/2016 2:13:49a 76 1 3 18 54 98.9 69.0 30.04 0.00 0.0 0 0.00 0.00 0.00 0.000
9/30/2016 2:14:50a 76 1 3 17 54 98.9 69.1 30.04 0.00 0.0 0 0.00 0.00 0.00 0.000
9/30/2016 2:15:51a 76 0 3 17 54 98.9 69.1 30.04 0.00 0.0 0 0.00 0.00 0.00 0.000
9/30/2016 2:16:51a 75 0 0 17 54 98.9 69.1 30.04 0.00 0.0 0 0.00 0.00 0.00 0.000
9/30/2016 2:17:51a 75 0 0 17 54 98.9 69.1 30.04 0.00 0.0 0 0.00 0.00 0.00 0.000
9/30/2016 2:18:51a 75 0 0 17 54 98.9 69.1 30.04 0.00 0.0 0 0.00 0.00 0.00 0.000
9/30/2016 2:19:51a 75 0 0 17 54 98.9 69.2 30.04 0.00 0.0 0 0.00 0.00 0.00 0.000
9/30/2016 2:20:51a 76 0 0 17 54 98.9 69.2 30.04 0.00 0.0 0 0.00 0.00 0.00 0.000
9/30/2016 2:21:57a 75 0 1 17 54 98.6 69.3 30.04 0.00 0.0 0 0.00 0.00 0.00 0.000
9/30/2016 2:22:57a 76 0 1 17 54 98.6 69.3 30.04 0.00 0.0 0 0.00 0.00 0.00 0.000
9/30/2016 2:23:58a 76 0 1 17 54 98.6 69.3 30.04 0.00 0.0 0 0.00 0.00 0.00 0.000
9/30/2016 2:24:58a 75 0 1 17 53 98.6 69.3 30.04 0.00 0.0 0 0.00 0.00 0.00 0.000
9/30/2016 2:25:58a 76 1 3 17 54 98.6 69.4 30.04 0.00 0.0 0 0.00 0.00 0.00 0.000
9/30/2016 2:27:01a 76 2 3 17 54 98.6 69.4 30.04 0.00 0.0 0 0.00 0.00 0.00 0.000
9/30/2016 2:28:03a 76 2 3 17 54 98.6 69.5 30.04 0.00 0.0 0 0.00 0.00 0.00 0.000
9/30/2016 2:29:07a 76 0 3 17 54 98.6 69.5 30.04 0.00 0.0 0 0.00 0.00 0.00 0.000
9/30/2016 2:30:10a 76 0 3 17 54 98.6 69.5 30.04 0.00 0.0 0 0.00 0.00 0.00 0.000
9/30/2016 2:31:14a 76 0 3 17 54 98.6 69.5 30.04 0.00 0.0 0 0.00 0.00 0.00 0.000
9/30/2016 2:32:14a 76 0 3 17 54 98.6 69.5 30.04 0.00 0.0 0 0.00 0.00 0.00 0.000
9/30/2016 2:33:18a 76 0 3 17 54 98.6 69.5 30.04 0.00 0.0 0 0.00 0.00 0.00 0.000
9/30/2016 2:34:21a 76 1 3 17 54 98.6 69.5 30.03 0.00 0.0 0 0.00 0.00 0.00 0.000
9/30/2016 2:35:21a 76 1 3 17 54 98.6 69.5 30.04 0.00 0.0 0 0.00 0.00 0.00 0.000
9/30/2016 2:36:25a 76 1 3 17 54 98.6 69.5 30.04 0.00 0.0 0 0.00 0.00 0.00 0.000
9/30/2016 2:37:33a 76 1 3 17 54 98.6 69.5 30.04 0.00 0.0 0 0.00 0.00 0.00 0.000
9/30/2016 2:38:37a 76 4 4 17 54 98.6 69.5 30.03 0.00 0.0 0 0.00 0.00 0.00 0.000
9/30/2016 2:39:37a 76 3 4 17 54 98.6 69.6 30.03 0.00 0.0 0 0.00 0.00 0.00 0.000
9/30/2016 2:40:41a 76 3 4 17 54 98.6 69.6 30.03 0.00 0.0 0 0.00 0.00 0.00 0.000
9/30/2016 2:41:41a 76 3 4 17 54 98.6 69.6 30.03 0.00 0.0 0 0.00 0.00 0.00 0.000
9/30/2016 2:42:44a 76 3 4 17 54 98.6 69.6 30.03 0.00 0.0 0 0.00 0.00 0.00 0.000
9/30/2016 2:44:48a 75 2 4 17 54 98.6 69.6 30.03 0.00 0.0 0 0.00 0.00 0.00 0.000
9/30/2016 2:45:51a 76 2 4 17 54 98.6 69.6 30.03 0.00 0.0 0 0.00 0.00 0.00 0.000
9/30/2016 2:46:56a 76 2 4 17 54 98.6 69.6 30.03 0.00 0.0 0 0.00 0.00 0.00 0.000
9/30/2016 2:47:59a 76 2 4 17 54 98.6 69.6 30.03 0.00 0.0 0 0.00 0.00 0.00 0.000
9/30/2016 2:49:00a 76 2 4 17 53 98.6 69.6 30.03 0.00 0.0 0 0.00 0.00 0.00 0.000
9/30/2016 2:50:04a 76 2 4 17 53 98.6 69.6 30.03 0.00 0.0 0 0.00 0.00 0.00 0.000
9/30/2016 2:51:05a 76 2 4 17 53 98.6 69.6 30.03 0.00 0.0 0 0.00 0.00 0.00 0.000
9/30/2016 2:52:15a 76 2 4 17 53 98.6 69.6 30.03 0.00 0.0 0 0.00 0.00 0.00 0.000
9/30/2016 2:53:19a 76 2 4 17 53 98.6 69.6 30.03 0.00 0.0 0 0.00 0.00 0.00 0.000
9/30/2016 2:54:19a 76 2 4 17 53 98.9 69.7 30.03 0.00 0.0 0 0.00 0.00 0.00 0.000
9/30/2016 2:55:20a 76 2 4 17 53 98.9 69.7 30.03 0.00 0.0 0 0.00 0.00 0.00 0.000
9/30/2016 2:56:22a 76 2 4 17 53 98.9 69.7 30.03 0.00 0.0 0 0.00 0.00 0.00 0.000
9/30/2016 2:57:26a 76 2 4 17 53 98.9 69.7 30.03 0.00 0.0 0 0.00 0.00 0.00 0.000
9/30/2016 2:58:30a 76 2 4 17 53 98.9 69.7 30.03 0.00 0.0 0 0.00 0.00 0.00 0.000
9/30/2016 2:59:32a 76 0 4 17 53 98.9 69.6 30.03 0.00 0.0 0 0.00 0.00 0.00 0.000
9/30/2016 3:00:33a 75 0 4 17 53 98.9 69.6 30.03 0.00 0.0 0 0.00 0.00 0.00 0.000
9/30/2016 3:01:37a 75 0 4 17 53 98.9 69.6 30.03 0.00 0.0 0 0.00 0.00 0.00 0.000
9/30/2016 3:02:42a 75 0 4 17 53 98.9 69.6 30.03 0.00 0.0 0 0.00 0.00 0.00 0.000
9/30/2016 3:03:46a 75 0 4 17 53 98.9 69.6 30.03 0.00 0.0 0 0.00 0.00 0.00 0.000
9/30/2016 3:04:48a 76 2 4 17 53 98.9 69.6 30.03 0.00 0.0 0 0.00 0.00 0.00 0.000
9/30/2016 3:05:51a 76 2 4 17 53 98.9 69.6 30.03 0.00 0.0 0 0.00 0.00 0.00 0.000
9/30/2016 3:07:00a 76 2 4 17 53 98.9 69.6 30.03 0.00 0.0 0 0.00 0.00 0.00 0.000
9/30/2016 3:08:00a 76 0 4 17 53 98.9 69.5 30.03 0.00 0.0 0 0.00 0.00 0.00 0.000
9/30/2016 3:09:08a 76 0 4 17 53 98.9 69.5 30.03 0.00 0.0 0 0.00 0.00 0.00 0.000
9/30/2016 3:10:18a 76 0 4 17 53 98.9 69.6 30.03 0.00 0.0 0 0.00 0.00 0.00 0.000
9/30/2016 3:12:22a 76 0 4 17 53 98.9 69.6 30.03 0.00 0.0 0 0.00 0.00 0.00 0.000
9/30/2016 3:13:58a 76 0 4 17 53 98.9 69.6 30.03 0.00 0.0 0 0.00 0.00 0.00 0.000
9/30/2016 3:14:57a 76 2 4 17 52 98.9 69.5 30.02 0.00 0.0 0 0.00 0.00 0.00 0.000
9/30/2016 3:15:59a 76 1 4 17 52 98.9 69.5 30.02 0.00 0.0 0 0.00 0.00 0.00 0.000
9/30/2016 3:17:00a 76 1 4 17 52 98.9 69.5 30.02 0.00 0.0 0 0.00 0.00 0.00 0.000
9/30/2016 3:18:00a 76 1 4 17 52 98.9 69.5 30.02 0.00 0.0 0 0.00 0.00 0.00 0.000
9/30/2016 3:19:04a 76 1 4 17 52 98.9 69.5 30.02 0.00 0.0 0 0.00 0.00 0.00 0.000
9/30/2016 3:20:18a 75 0 4 17 52 98.9 69.3 30.03 0.00 0.0 0 0.00 0.00 0.00 0.000
9/30/2016 3:21:24a 75 0 4 17 52 98.9 69.3 30.03 0.00 0.0 0 0.00 0.00 0.00 0.000
9/30/2016 3:22:26a 75 0 4 17 52 98.9 69.3 30.03 0.00 0.0 0 0.00 0.00 0.00 0.000
9/30/2016 3:23:26a 75 0 4 17 52 98.9 69.3 30.03 0.00 0.0 0 0.00 0.00 0.00 0.000
9/30/2016 3:24:29a 75 0 4 17 52 98.9 69.3 30.03 0.00 0.0 0 0.00 0.00 0.00 0.000
9/30/2016 3:25:30a 75 0 4 17 52 98.9 69.2 30.03 0.00 0.0 0 0.00 0.00 0.00 0.000
9/30/2016 3:26:34a 75 0 4 17 52 98.9 69.2 30.03 0.00 0.0 0 0.00 0.00 0.00 0.000
9/30/2016 3:27:42a 75 0 4 17 52 98.9 69.2 30.03 0.00 0.0 0 0.00 0.00 0.00 0.000
9/30/2016 3:28:41a 75 0 4 17 52 98.9 69.2 30.03 0.00 0.0 0 0.00 0.00 0.00 0.000
9/30/2016 3:29:49a 75 0 4 17 52 98.9 69.1 30.02 0.00 0.0 0 0.00 0.00 0.00 0.000
9/30/2016 3:32:12a 75 0 4 17 52 98.9 69.1 30.02 0.00 0.0 0 0.00 0.00 0.00 0.000
9/30/2016 3:33:18a 75 0 4 17 52 98.9 69.1 30.02 0.00 0.0 0 0.00 0.00 0.00 0.000
9/30/2016 3:34:19a 75 0 4 17 52 98.9 69.1 30.02 0.00 0.0 0 0.00 0.00 0.00 0.000
9/30/2016 3:35:22a 76 0 4 17 53 98.9 69.0 30.02 0.00 0.0 0 0.00 0.00 0.00 0.000
9/30/2016 3:36:24a 76 0 4 17 53 98.9 69.0 30.02 0.00 0.0 0 0.00 0.00 0.00 0.000
9/30/2016 3:37:29a 76 0 4 17 53 98.9 69.0 30.02 0.00 0.0 0 0.00 0.00 0.00 0.000
9/30/2016 3:38:31a 76 0 4 17 53 98.9 69.0 30.02 0.00 0.0 0 0.00 0.00 0.00 0.000
9/30/2016 3:39:45a 76 0 4 17 53 98.9 69.0 30.02 0.00 0.0 0 0.00 0.00 0.00 0.000
9/30/2016 3:40:45a 75 0 4 17 53 98.9 68.8 30.02 0.00 0.0 0 0.00 0.00 0.00 0.000
9/30/2016 3:41:45a 75 0 4 17 53 98.9 68.8 30.02 0.00 0.0 0 0.00 0.00 0.00 0.000
9/30/2016 3:43:04a 75 0 4 17 53 98.9 68.8 30.02 0.00 0.0 0 0.00 0.00 0.00 0.000
9/30/2016 3:44:05a 75 0 4 17 53 98.9 68.8 30.02 0.00 0.0 0 0.00 0.00 0.00 0.000
9/30/2016 3:45:05a 76 0 4 17 53 98.9 68.6 30.02 0.00 0.0 0 0.00 0.00 0.00 0.000
9/30/2016 3:46:05a 76 0 4 17 53 98.9 68.6 30.02 0.00 0.0 0 0.00 0.00 0.00 0.000
9/30/2016 3:47:11a 76 0 4 17 53 98.9 68.6 30.02 0.00 0.0 0 0.00 0.00 0.00 0.000
9/30/2016 3:48:10a 76 0 4 17 53 98.9 68.6 30.02 0.00 0.0 0 0.00 0.00 0.00 0.000
9/30/2016 3:49:15a 76 0 4 17 53 98.9 68.6 30.02 0.00 0.0 0 0.00 0.00 0.00 0.000
9/30/2016 3:50:18a 76 0 4 17 53 98.9 68.6 30.02 0.00 0.0 0 0.00 0.00 0.00 0.000
9/30/2016 3:51:32a 76 2 4 17 53 99.1 68.4 30.02 0.00 0.0 0 0.00 0.00 0.00 0.000
9/30/2016 3:52:35a 76 2 4 17 53 99.1 68.4 30.02 0.00 0.0 0 0.00 0.00 0.00 0.000
9/30/2016 4:09:29a 76 2 4 17 53 99.1 68.4 30.02 0.00 0.0 0 0.00 0.00 0.00 0.000
9/30/2016 4:10:44a 77 2 4 17 53 99.1 67.8 30.03 0.00 0.0 0 0.00 0.00 0.00 0.000
9/30/2016 4:11:55a 77 2 4 17 53 99.1 67.8 30.03 0.00 0.0 0 0.00 0.00 0.00 0.000
9/30/2016 4:15:01a 77 2 4 17 53 99.1 67.8 30.03 0.00 0.0 0 0.00 0.00 0.00 0.000
9/30/2016 4:18:18a 77 2 4 17 53 99.1 67.8 30.03 0.00 0.0 0 0.00 0.00 0.00 0.000
9/30/2016 4:19:19a 77 2 4 17 52 99.1 67.7 30.03 0.00 0.0 0 0.00 0.00 0.00 0.000
9/30/2016 4:20:46a 77 1 4 17 52 99.1 67.7 30.03 0.00 0.0 0 0.00 0.00 0.00 0.000
9/30/2016 4:21:50a 77 1 4 17 52 99.1 67.7 30.03 0.00 0.0 0 0.00 0.00 0.00 0.000
9/30/2016 4:23:28a 77 1 4 17 52 99.1 67.7 30.03 0.00 0.0 0 0.00 0.00 0.00 0.000
9/30/2016 4:24:27a 77 1 4 17 52 99.1 67.7 30.03 0.00 0.0 0 0.00 0.00 0.00 0.000
9/30/2016 4:25:27a 77 0 4 17 53 99.1 67.6 30.03 0.00 0.0 0 0.00 0.00 0.00 0.000
9/30/2016 4:26:32a 77 0 4 17 53 99.1 67.6 30.03 0.00 0.0 0 0.00 0.00 0.00 0.000
9/30/2016 4:27:48a 77 0 4 17 53 99.1 67.6 30.03 0.00 0.0 0 0.00 0.00 0.00 0.000
9/30/2016 4:29:10a 77 0 4 17 53 99.1 67.6 30.03 0.00 0.0 0 0.00 0.00 0.00 0.000
9/30/2016 4:46:03a 77 1 4 16 53 99.1 67.6 30.03 0.00 0.0 0 0.00 0.00 0.00 0.000
9/30/2016 4:47:04a 77 0 1 16 53 99.1 67.6 30.03 0.00 0.0 0 0.00 0.00 0.00 0.000
9/30/2016 4:48:03a 77 0 1 16 53 99.1 67.6 30.03 0.00 0.0 0 0.00 0.00 0.00 0.000
9/30/2016 4:49:09a 77 0 1 16 53 99.1 67.6 30.03 0.00 0.0 0 0.00 0.00 0.00 0.000
9/30/2016 4:50:10a 77 0 1 16 53 99.1 67.6 30.03 0.00 0.0 0 0.00 0.00 0.00 0.000
9/30/2016 4:51:19a 77 0 1 16 53 99.1 67.6 30.03 0.00 0.0 0 0.00 0.00 0.00 0.000
9/30/2016 4:52:23a 77 0 1 16 53 99.1 67.6 30.03 0.00 0.0 0 0.00 0.00 0.00 0.000
9/30/2016 4:53:31a 77 0 1 16 53 99.1 67.6 30.03 0.00 0.0 0 0.00 0.00 0.00 0.000
9/30/2016 4:55:08a 79 2 4 16 53 99.1 67.5 30.03 0.00 0.0 0 0.00 0.00 0.00 0.000
9/30/2016 4:56:09a 79 3 4 16 53 99.1 67.5 30.03 0.00 0.0 0 0.00 0.00 0.00 0.000
9/30/2016 4:57:09a 79 3 4 16 52 99.1 67.5 30.03 0.00 0.0 0 0.00 0.00 0.00 0.000
9/30/2016 4:58:13a 79 2 4 16 52 99.1 67.4 30.03 0.00 0.0 0 0.00 0.00 0.00 0.000
9/30/2016 4:59:17a 78 3 4 16 52 99.1 67.4 30.03 0.00 0.0 0 0.00 0.00 0.00 0.000
9/30/2016 5:00:17a 79 2 4 16 52 99.1 67.4 30.03 0.00 0.0 0 0.00 0.00 0.00 0.000
9/30/2016 5:01:20a 78 2 2 16 52 99.1 67.3 30.03 0.00 0.0 0 0.00 0.00 0.00 0.000
9/30/2016 5:02:26a 79 2 2 16 52 98.9 67.3 30.04 0.00 0.0 0 0.00 0.00 0.00 0.000
9/30/2016 5:03:36a 79 1 2 16 52 98.9 67.2 30.04 0.00 0.0 0 0.00 0.00 0.00 0.000
9/30/2016 5:04:36a 78 2 2 16 53 98.9 67.2 30.04 0.00 0.0 0 0.00 0.00 0.00 0.000
9/30/2016 5:05:39a 79 2 3 16 52 98.9 67.2 30.03 0.00 0.0 0 0.00 0.00 0.00 0.000
9/30/2016 5:06:45a 78 3 3 16 53 98.9 67.1 30.04 0.00 0.0 0 0.00 0.00 0.00 0.000
9/30/2016 5:07:45a 78 3 3 16 53 98.9 67.1 30.04 0.00 0.0 0 0.00 0.00 0.00 0.000
9/30/2016 5:08:45a 79 2 3 16 52 98.9 67.0 30.04 0.00 0.0 0 0.00 0.00 0.00 0.000
9/30/2016 5:09:45a 79 3 3 16 53 98.6 66.9 30.04 0.00 0.0 0 0.00 0.00 0.00 0.000
9/30/2016 5:10:45a 79 3 3 16 53 98.6 66.9 30.04 0.00 0.0 0 0.00 0.00 0.00 0.000
9/30/2016 5:11:45a 78 3 3 16 53 98.6 66.8 30.04 0.00 0.0 0 0.00 0.00 0.00 0.000
9/30/2016 5:12:46a 78 3 4 16 53 98.6 66.8 30.04 0.00 0.0 0 0.00 0.00 0.00 0.000
9/30/2016 5:13:46a 78 3 4 16 53 98.6 66.7 30.04 0.00 0.0 0 0.00 0.00 0.00 0.000
9/30/2016 5:14:46a 79 3 4 16 53 98.6 66.6 30.03 0.00 0.0 0 0.00 0.00 0.00 0.000
9/30/2016 5:15:50a 79 3 4 16 53 98.6 66.6 30.04 0.00 0.0 0 0.00 0.00 0.00 0.000
9/30/2016 5:16:50a 79 3 4 16 53 98.6 66.6 30.04 0.00 0.0 0 0.00 0.00 0.00 0.000
9/30/2016 5:17:53a 79 2 4 16 53 98.6 66.4 30.04 0.00 0.0 0 0.00 0.00 0.00 0.000
9/30/2016 5:18:53a 74 4 4 16 53 98.6 66.3 30.04 0.00 0.0 0 0.00 0.00 0.00 0.000
9/30/2016 5:19:57a 74 3 4 16 53 98.6 66.2 30.04 0.00 0.0 0 0.00 0.00 0.00 0.000
9/30/2016 5:20:57a 74 3 4 16 53 98.6 66.2 30.04 0.00 0.0 0 0.00 0.00 0.00 0.000
9/30/2016 5:22:04a 74 3 4 16 53 98.6 66.2 30.04 0.00 0.0 0 0.00 0.00 0.00 0.000
9/30/2016 5:23:07a 73 3 4 16 54 98.6 66.1 30.04 0.00 0.0 0 0.00 0.00 0.00 0.000
9/30/2016 5:24:07a 70 4 4 16 54 98.6 66.1 30.04 0.00 0.0 0 0.00 0.00 0.00 0.000
9/30/2016 5:25:10a 70 2 4 16 54 98.6 66.1 30.04 0.00 0.0 0 0.00 0.00 0.00 0.000
9/30/2016 5:26:14a 70 2 4 16 54 98.6 66.1 30.04 0.00 0.0 0 0.00 0.00 0.00 0.000
9/30/2016 5:27:14a 70 2 4 16 54 98.6 66.1 30.04 0.00 0.0 0 0.00 0.00 0.00 0.000
9/30/2016 5:28:17a 69 3 4 16 54 98.6 66.0 30.04 0.00 0.0 0 0.00 0.00 0.00 0.000
9/30/2016 5:29:17a 69 2 4 16 55 98.6 66.0 30.04 0.00 0.0 0 0.00 0.00 0.00 0.000
9/30/2016 5:30:20a 68 3 4 16 55 98.6 66.0 30.04 0.00 0.0 0 0.00 0.00 0.00 0.000
9/30/2016 5:31:19a 68 3 4 16 55 98.6 66.0 30.04 0.00 0.0 0 0.00 0.00 0.00 0.000
9/30/2016 5:32:22a 68 3 4 16 55 98.6 66.0 30.04 0.00 0.0 0 0.00 0.00 0.00 0.000
9/30/2016 5:35:35a 68 4 4 16 55 98.6 66.2 30.04 0.00 0.0 0 0.00 0.00 0.00 0.000
9/30/2016 5:36:44a 68 4 4 16 55 98.6 66.2 30.04 0.00 0.0 0 0.00 0.00 0.00 0.000
9/30/2016 5:37:52a 68 4 4 16 55 98.6 66.2 30.04 0.00 0.0 0 0.00 0.00 0.00 0.000
9/30/2016 5:38:59a 68 4 4 16 55 98.6 66.2 30.04 0.00 0.0 0 0.00 0.00 0.00 0.000
9/30/2016 5:40:01a 70 2 4 15 55 98.1 66.3 30.04 0.00 0.0 0 0.00 0.00 0.00 0.000
9/30/2016 5:41:01a 70 2 4 15 55 98.1 66.3 30.04 0.00 0.0 0 0.00 0.00 0.00 0.000
9/30/2016 5:42:03a 70 2 4 15 55 98.1 66.3 30.04 0.00 0.0 0 0.00 0.00 0.00 0.000
9/30/2016 5:43:06a 70 2 4 15 55 98.1 66.3 30.04 0.00 0.0 0 0.00 0.00 0.00 0.000
9/30/2016 5:44:16a 70 2 4 15 55 98.1 66.3 30.04 0.00 0.0 0 0.00 0.00 0.00 0.000
9/30/2016 5:45:18a 70 2 4 15 55 97.4 66.3 30.04 0.00 0.0 0 0.00 0.00 0.00 0.000
9/30/2016 5:46:21a 70 2 4 15 55 97.4 66.3 30.04 0.00 0.0 0 0.00 0.00 0.00 0.000
9/30/2016 5:47:23a 70 2 4 15 55 97.4 66.3 30.04 0.00 0.0 0 0.00 0.00 0.00 0.000
9/30/2016 5:48:26a 70 2 4 15 55 97.4 66.3 30.04 0.00 0.0 0 0.00 0.00 0.00 0.000
9/30/2016 5:49:32a 70 2 4 15 55 97.4 66.3 30.04 0.00 0.0 0 0.00 0.00 0.00 0.000
9/30/2016 5:50:42a 70 3 4 15 55 96.7 66.6 30.04 0.00 0.0 0 0.00 0.00 0.00 0.000
9/30/2016 5:52:12a 70 3 4 15 55 96.7 66.6 30.04 0.00 0.0 0 0.00 0.00 0.00 0.000
9/30/2016 6:10:17a 70 3 4 15 55 96.7 66.6 30.04 0.00 0.0 0 0.00 0.00 0.00 0.000
9/30/2016 6:11:49a 70 3 4 15 53 93.8 67.3 30.04 0.00 0.0 0 0.00 0.00 0.00 0.000
9/30/2016 6:14:05a 70 3 4 16 52 93.6 67.2 30.04 0.00 0.0 0 0.00 0.00 0.00 0.000
9/30/2016 6:17:58a 70 3 4 16 52 93.4 67.1 30.04 0.00 0.0 0 0.00 0.00 0.00 0.000
9/30/2016 6:18:58a 70 2 4 16 52 93.1 67.1 30.04 0.00 0.0 0 0.00 0.00 0.00 0.000
9/30/2016 6:20:11a 70 2 4 16 52 93.1 67.1 30.04 0.00 0.0 0 0.00 0.00 0.00 0.000
9/30/2016 6:21:32a 70 2 4 16 52 93.1 67.1 30.04 0.00 0.0 0 0.00 0.00 0.00 0.000
9/30/2016 6:23:21a 70 2 4 16 52 93.1 67.1 30.04 0.00 0.0 0 0.00 0.00 0.00 0.000
9/30/2016 6:25:45a 70 2 4 16 52 93.1 67.1 30.04 0.00 0.0 0 0.00 0.00 0.00 0.000
9/30/2016 6:26:51a 70 2 4 16 52 93.1 67.1 30.04 0.00 0.0 0 0.00 0.00 0.00 0.000
9/30/2016 6:27:50a 70 1 4 16 53 92.5 67.0 30.04 0.00 0.0 0 0.00 0.00 0.00 0.000
9/30/2016 6:28:50a 70 1 4 16 53 92.5 67.0 30.04 0.00 0.0 0 0.00 0.00 0.00 0.000
9/30/2016 6:29:50a 70 2 4 16 53 92.5 67.1 30.04 0.00 0.0 0 0.00 0.00 0.00 0.000
9/30/2016 6:31:02a 70 1 4 16 53 92.5 67.1 30.04 0.00 0.0 0 0.00 0.00 0.00 0.000
9/30/2016 6:32:17a 70 1 4 16 53 92.5 67.1 30.04 0.00 0.0 0 0.00 0.00 0.00 0.000

© All rights reserved. Unauthorized duplication or distribution is prohibited

Never base important decisions on this or any weather information obtained from the Internet

California State University, San Bernardino
5500 University Parkway, San Bernardino, CA. 92407
Phone: (909) 537-7558, Email: Weather Master
Last Updated: